TimeCST,TemperatureF,Dew PointF,Humidity,Sea Level PressureIn,VisibilityMPH,Wind Direction,Wind SpeedMPH,Gust SpeedMPH,PrecipitationIn,Events,Conditions,WindDirDegrees,DateUTC
12:15 AM,31.8,23.0,70,30.03,10.0,NE,4.6,-,N/A,,Clear,50,2013-02-25 06:15:00
12:35 AM,31.8,23.2,70,30.02,10.0,NE,5.8,-,N/A,,Clear,50,2013-02-25 06:35:00
12:55 AM,31.6,23.2,71,30.02,10.0,NE,8.1,-,N/A,,Clear,50,2013-02-25 06:55:00
1:15 AM,31.6,23.5,72,30.01,10.0,ENE,8.1,-,N/A,,Clear,60,2013-02-25 07:15:00
1:35 AM,31.6,23.5,72,29.99,10.0,ENE,9.2,-,N/A,,Clear,70,2013-02-25 07:35:00
1:55 AM,31.1,23.4,73,29.98,10.0,East,10.4,-,N/A,,Clear,90,2013-02-25 07:55:00
2:15 AM,30.7,23.5,75,29.99,10.0,ENE,6.9,-,N/A,,Clear,70,2013-02-25 08:15:00
2:35 AM,30.7,23.5,75,30.00,10.0,NE,4.6,-,N/A,,Clear,40,2013-02-25 08:35:00
2:55 AM,28.8,22.8,78,30.00,10.0,NE,6.9,-,N/A,,Clear,50,2013-02-25 08:55:00
3:15 AM,27.7,22.8,82,29.99,10.0,NE,4.6,-,N/A,,Clear,40,2013-02-25 09:15:00
3:35 AM,27.1,22.6,83,30.00,10.0,ENE,3.5,-,N/A,,Clear,60,2013-02-25 09:35:00
3:55 AM,28.8,23.7,81,29.99,10.0,East,5.8,-,N/A,,Clear,80,2013-02-25 09:55:00
4:15 AM,28.9,23.5,80,29.98,10.0,ENE,5.8,-,N/A,,Clear,70,2013-02-25 10:15:00
4:35 AM,28.6,23.5,81,29.98,10.0,ENE,6.9,-,N/A,,Clear,70,2013-02-25 10:35:00
4:55 AM,28.0,23.2,82,29.98,10.0,North,3.5,-,N/A,,Clear,10,2013-02-25 10:55:00
5:15 AM,26.6,23.2,87,29.98,10.0,NE,5.8,-,N/A,,Clear,40,2013-02-25 11:15:00
5:35 AM,27.1,23.5,86,29.97,10.0,NE,4.6,-,N/A,,Clear,50,2013-02-25 11:35:00
5:55 AM,25.5,22.5,88,29.98,7.0,NE,4.6,-,N/A,,Clear,50,2013-02-25 11:55:00
6:15 AM,26.1,23.5,90,29.96,10.0,ENE,5.8,-,N/A,,Clear,60,2013-02-25 12:15:00
6:35 AM,27.1,23.7,87,29.96,10.0,ENE,4.6,-,N/A,,Clear,60,2013-02-25 12:35:00
6:55 AM,26.8,23.0,86,29.96,7.0,Calm,Calm,-,N/A,,Clear,0,2013-02-25 12:55:00
7:15 AM,26.8,23.0,86,29.97,7.0,Calm,Calm,-,N/A,,Clear,0,2013-02-25 13:15:00
7:35 AM,27.9,23.5,84,29.98,7.0,NE,3.5,-,N/A,,Clear,40,2013-02-25 13:35:00
7:55 AM,27.7,23.0,83,29.96,10.0,NE,5.8,-,N/A,,Clear,40,2013-02-25 13:55:00
8:15 AM,28.6,23.4,81,29.96,10.0,NE,6.9,-,N/A,,Clear,50,2013-02-25 14:15:00
8:35 AM,30.9,24.3,76,29.96,10.0,ENE,5.8,-,N/A,,Clear,60,2013-02-25 14:35:00
8:55 AM,32.2,24.6,74,29.97,10.0,ENE,4.6,-,N/A,,Clear,70,2013-02-25 14:55:00
9:15 AM,33.8,24.8,70,29.96,10.0,ENE,8.1,-,N/A,,Clear,70,2013-02-25 15:15:00
9:35 AM,35.8,25.2,65,29.97,10.0,East,6.9,-,N/A,,Clear,80,2013-02-25 15:35:00
9:55 AM,37.4,25.5,62,29.96,10.0,East,10.4,-,N/A,,Clear,80,2013-02-25 15:55:00
10:15 AM,38.7,25.5,59,29.96,10.0,East,9.2,-,N/A,,Clear,80,2013-02-25 16:15:00
10:35 AM,39.6,25.5,57,29.95,10.0,East,11.5,-,N/A,,Clear,90,2013-02-25 16:35:00
10:55 AM,40.1,25.0,55,29.93,10.0,ENE,12.7,-,N/A,,Clear,70,2013-02-25 16:55:00
11:15 AM,41.0,24.8,53,29.94,10.0,ENE,9.2,-,N/A,,Clear,70,2013-02-25 17:15:00
11:35 AM,41.7,25.2,52,29.92,10.0,ENE,9.2,-,N/A,,Clear,60,2013-02-25 17:35:00
11:55 AM,41.5,25.5,53,29.90,10.0,ENE,12.7,-,N/A,,Clear,60,2013-02-25 17:55:00
12:15 PM,41.9,25.2,52,29.90,10.0,ENE,10.4,-,N/A,,Clear,60,2013-02-25 18:15:00
12:35 PM,41.9,25.2,52,29.88,10.0,NNE,10.4,17.3,N/A,,Clear,30,2013-02-25 18:35:00
12:55 PM,41.0,25.9,55,29.88,10.0,NNE,10.4,-,N/A,,Clear,30,2013-02-25 18:55:00
1:15 PM,40.8,25.7,55,29.89,10.0,NE,10.4,-,N/A,,Scattered Clouds,50,2013-02-25 19:15:00
1:35 PM,41.2,25.5,54,29.87,10.0,NE,11.5,16.1,N/A,,Clear,50,2013-02-25 19:35:00
1:55 PM,41.2,25.7,54,29.86,10.0,NE,10.4,-,N/A,,Clear,40,2013-02-25 19:55:00
2:15 PM,41.0,25.9,55,29.84,10.0,NE,11.5,-,N/A,,Clear,40,2013-02-25 20:15:00
2:35 PM,41.0,25.7,55,29.84,10.0,NE,13.8,-,N/A,,Mostly Cloudy,40,2013-02-25 20:35:00
2:55 PM,40.8,25.7,55,29.84,10.0,NNE,11.5,19.6,N/A,,Overcast,30,2013-02-25 20:55:00
3:15 PM,40.6,26.2,57,29.83,10.0,NNE,13.8,-,N/A,,Mostly Cloudy,20,2013-02-25 21:15:00
3:35 PM,40.5,26.4,57,29.82,10.0,NNE,12.7,17.3,N/A,,Scattered Clouds,30,2013-02-25 21:35:00
3:55 PM,40.6,26.1,56,29.84,10.0,NE,11.5,-,N/A,,Mostly Cloudy,40,2013-02-25 21:55:00
4:15 PM,40.3,26.4,58,29.83,10.0,NNE,13.8,17.3,N/A,,Mostly Cloudy,30,2013-02-25 22:15:00
4:35 PM,40.1,26.6,59,29.80,10.0,NNE,15.0,21.9,N/A,,Mostly Cloudy,30,2013-02-25 22:35:00
4:55 PM,39.7,26.8,60,29.80,10.0,NNE,13.8,-,N/A,,Overcast,30,2013-02-25 22:55:00
5:15 PM,39.2,27.0,62,29.78,10.0,NNE,19.6,-,N/A,,Overcast,30,2013-02-25 23:15:00
5:35 PM,39.2,27.3,62,29.81,10.0,NE,13.8,23.0,N/A,,Overcast,40,2013-02-25 23:35:00
5:55 PM,38.8,27.7,64,29.82,10.0,NNE,11.5,-,N/A,,Overcast,30,2013-02-25 23:55:00
6:15 PM,38.7,27.9,65,29.80,10.0,NE,16.1,21.9,N/A,,Overcast,50,2013-02-26 00:15:00
6:35 PM,38.5,28.2,67,29.78,10.0,NE,18.4,25.3,N/A,,Overcast,50,2013-02-26 00:35:00
6:55 PM,38.3,28.6,68,29.72,10.0,NE,25.3,34.5,N/A,Rain,Light Rain,50,2013-02-26 00:55:00
7:15 PM,37.8,29.5,72,29.77,10.0,NE,17.3,24.2,N/A,Rain,Light Rain,50,2013-02-26 01:15:00
7:55 PM,37.6,30.2,75,29.74,10.0,NE,20.7,32.2,N/A,,Light Drizzle,50,2013-02-26 01:55:00
8:15 PM,37.4,30.9,77,29.76,10.0,ENE,15.0,25.3,N/A,Rain,Light Rain,60,2013-02-26 02:15:00
8:35 PM,37.0,31.3,80,29.75,4.0,NE,16.1,29.9,N/A,Rain,Light Rain,50,2013-02-26 02:35:00
8:55 PM,36.0,32.0,86,29.74,2.5,ENE,17.3,26.5,0.04,,Overcast,60,2013-02-26 02:55:00
9:15 PM,34.3,32.5,93,29.75,1.0,ENE,13.8,21.9,0.06,Snow,Snow,60,2013-02-26 03:15:00
9:35 PM,33.8,32.9,96,29.73,1.0,NE,15.0,24.2,0.11,Snow,Light Snow,50,2013-02-26 03:35:00
9:55 PM,33.6,32.9,97,29.72,1.8,ENE,13.8,20.7,0.13,Snow,Light Snow,60,2013-02-26 03:55:00
10:15 PM,33.4,32.9,98,29.71,1.8,NE,13.8,-,0.03,Snow,Light Snow,50,2013-02-26 04:15:00
10:35 PM,33.4,33.1,99,29.69,2.0,NE,12.7,20.7,0.05,Snow,Light Snow,40,2013-02-26 04:35:00
10:55 PM,33.6,33.1,98,29.66,2.5,NE,16.1,20.7,0.06,Snow,Light Snow,50,2013-02-26 04:55:00
11:15 PM,33.8,33.1,97,29.64,3.0,NE,12.7,19.6,0.01,Snow,Light Snow,40,2013-02-26 05:15:00
11:35 PM,33.8,32.9,96,29.63,5.0,NE,16.1,23.0,0.01,Snow,Light Snow,40,2013-02-26 05:35:00
11:55 PM,33.8,32.9,96,29.62,5.0,NE,16.1,23.0,0.05,Snow,Light Snow,40,2013-02-26 05:55:00